owner,sensor,date,latitude,longitude,air_pressure(mBar),qcFlag 
TCOON,ioos:station:TCOON:146:1,2017-02-01T00:30:00Z,28.1324,-97.0345,1015.7,1111122 
TCOON,ioos:station:TCOON:146:1,2017-02-01T02:30:00Z,28.1324,-97.0345,1015.6,1111122 
TCOON,ioos:station:TCOON:146:1,2017-02-01T04:30:00Z,28.1324,-97.0345,1015.6,1111122 
TCOON,ioos:station:TCOON:146:1,2017-02-01T05:30:00Z,28.1324,-97.0345,1015.7,1111122 
TCOON,ioos:station:TCOON:146:1,2017-02-01T07:30:00Z,28.1324,-97.0345,1015.0,1111122 
TCOON,ioos:station:TCOON:146:1,2017-02-01T09:30:00Z,28.1324,-97.0345,1014.4,1111122 
TCOON,ioos:station:TCOON:146:1,2017-02-01T10:30:00Z,28.1324,-97.0345,1014.4,1111122 
TCOON,ioos:station:TCOON:146:1,2017-02-01T12:30:00Z,28.1324,-97.0345,1015.0,1111122 
TCOON,ioos:station:TCOON:146:1,2017-02-01T14:30:00Z,28.1324,-97.0345,1015.8,1111122 
TCOON,ioos:station:TCOON:146:1,2017-02-01T16:30:00Z,28.1324,-97.0345,1016.5,1111122 
TCOON,ioos:station:TCOON:146:1,2017-02-01T17:30:00Z,28.1324,-97.0345,1016.2,1111122 
TCOON,ioos:station:TCOON:146:1,2017-02-01T18:30:00Z,28.1324,-97.0345,1015.1,1111122 
TCOON,ioos:station:TCOON:146:1,2017-02-01T19:30:00Z,28.1324,-97.0345,1014.4,1111122 
TCOON,ioos:station:TCOON:146:1,2017-02-01T21:30:00Z,28.1324,-97.0345,1013.4,1111122 
TCOON,ioos:station:TCOON:146:1,2017-02-01T22:30:00Z,28.1324,-97.0345,1013.4,1111122 
TCOON,ioos:station:TCOON:146:1,2017-02-02T08:30:00Z,28.1324,-97.0345,1016.6,1111122 
TCOON,ioos:station:TCOON:146:1,2017-02-02T10:30:00Z,28.1324,-97.0345,1017.0,1111122 
TCOON,ioos:station:TCOON:146:1,2017-02-02T11:30:00Z,28.1324,-97.0345,1017.6,1111122 
TCOON,ioos:station:TCOON:146:1,2017-02-02T12:30:00Z,28.1324,-97.0345,1018.2,1111122 
TCOON,ioos:station:TCOON:146:1,2017-02-02T15:30:00Z,28.1324,-97.0345,1020.9,1111122 
TCOON,ioos:station:TCOON:146:1,2017-02-02T16:30:00Z,28.1324,-97.0345,1021.5,1111122 
TCOON,ioos:station:TCOON:146:1,2017-02-02T19:30:00Z,28.1324,-97.0345,1019.7,1111122 
TCOON,ioos:station:TCOON:146:1,2017-02-02T20:30:00Z,28.1324,-97.0345,1019.2,1111122 
TCOON,ioos:station:TCOON:146:1,2017-02-02T21:30:00Z,28.1324,-97.0345,1019.4,1111122 
TCOON,ioos:station:TCOON:146:1,2017-02-02T22:30:00Z,28.1324,-97.0345,1019.4,1111122 
TCOON,ioos:station:TCOON:146:1,2017-02-02T23:30:00Z,28.1324,-97.0345,1019.9,1111122 
TCOON,ioos:station:TCOON:146:1,2017-02-03T00:30:00Z,28.1324,-97.0345,1020.8,1111122 
TCOON,ioos:station:TCOON:146:1,2017-02-03T03:30:00Z,28.1324,-97.0345,1022.1,1111122 
TCOON,ioos:station:TCOON:146:1,2017-02-03T04:30:00Z,28.1324,-97.0345,1022.3,1111122 
TCOON,ioos:station:TCOON:146:1,2017-02-03T06:30:00Z,28.1324,-97.0345,1022.1,1111122 
TCOON,ioos:station:TCOON:146:1,2017-02-03T08:30:00Z,28.1324,-97.0345,1021.9,1111122 
TCOON,ioos:station:TCOON:146:1,2017-02-03T09:30:00Z,28.1324,-97.0345,1021.9,1111122 
TCOON,ioos:station:TCOON:146:1,2017-02-03T11:30:00Z,28.1324,-97.0345,1022.2,1111122 
TCOON,ioos:station:TCOON:146:1,2017-02-03T12:30:00Z,28.1324,-97.0345,1023.3,1111122 
TCOON,ioos:station:TCOON:146:1,2017-02-03T13:30:00Z,28.1324,-97.0345,1023.9,1111122 
TCOON,ioos:station:TCOON:146:1,2017-02-03T14:30:00Z,28.1324,-97.0345,1024.2,1111122 
TCOON,ioos:station:TCOON:146:1,2017-02-03T15:30:00Z,28.1324,-97.0345,1025.3,1111122 
TCOON,ioos:station:TCOON:146:1,2017-02-03T16:30:00Z,28.1324,-97.0345,1025.9,1111122 
TCOON,ioos:station:TCOON:146:1,2017-02-03T17:30:00Z,28.1324,-97.0345,1025.9,1111122 
TCOON,ioos:station:TCOON:146:1,2017-02-03T18:30:00Z,28.1324,-97.0345,1025.2,1111122 
TCOON,ioos:station:TCOON:146:1,2017-02-03T19:30:00Z,28.1324,-97.0345,1024.5,1111122 
TCOON,ioos:station:TCOON:146:1,2017-02-03T20:30:00Z,28.1324,-97.0345,1023.9,1111122 
TCOON,ioos:station:TCOON:146:1,2017-02-03T21:30:00Z,28.1324,-97.0345,1023.4,1111122 
TCOON,ioos:station:TCOON:146:1,2017-02-03T22:30:00Z,28.1324,-97.0345,1023.5,1111122 
TCOON,ioos:station:TCOON:146:1,2017-02-03T23:30:00Z,28.1324,-97.0345,1023.9,1111122 
TCOON,ioos:station:TCOON:146:1,2017-02-04T00:30:00Z,28.1324,-97.0345,1024.7,1111122 
TCOON,ioos:station:TCOON:146:1,2017-02-04T01:30:00Z,28.1324,-97.0345,1025.3,1111122 
TCOON,ioos:station:TCOON:146:1,2017-02-04T02:30:00Z,28.1324,-97.0345,1025.5,1111122 
TCOON,ioos:station:TCOON:146:1,2017-02-04T03:30:00Z,28.1324,-97.0345,1025.9,1111122 
TCOON,ioos:station:TCOON:146:1,2017-02-04T05:30:00Z,28.1324,-97.0345,1025.5,1111122 
TCOON,ioos:station:TCOON:146:1,2017-02-04T06:30:00Z,28.1324,-97.0345,1025.3,1111122 
TCOON,ioos:station:TCOON:146:1,2017-02-04T07:30:00Z,28.1324,-97.0345,1024.8,1111122 
TCOON,ioos:station:TCOON:146:1,2017-02-04T08:30:00Z,28.1324,-97.0345,1023.9,1111122 
TCOON,ioos:station:TCOON:146:1,2017-02-04T09:30:00Z,28.1324,-97.0345,1023.3,1111122 
TCOON,ioos:station:TCOON:146:1,2017-02-04T10:30:00Z,28.1324,-97.0345,1023.0,1111122 
TCOON,ioos:station:TCOON:146:1,2017-02-04T12:30:00Z,28.1324,-97.0345,1022.5,1111122 
TCOON,ioos:station:TCOON:146:1,2017-02-04T13:30:00Z,28.1324,-97.0345,1022.4,1111122 
TCOON,ioos:station:TCOON:146:1,2017-02-04T14:30:00Z,28.1324,-97.0345,1022.5,1111122 
TCOON,ioos:station:TCOON:146:1,2017-02-04T16:30:00Z,28.1324,-97.0345,1023.4,1111122 
TCOON,ioos:station:TCOON:146:1,2017-02-04T17:30:00Z,28.1324,-97.0345,1023.1,1111122 
TCOON,ioos:station:TCOON:146:1,2017-02-04T18:30:00Z,28.1324,-97.0345,1022.0,1111122 
TCOON,ioos:station:TCOON:146:1,2017-02-04T19:30:00Z,28.1324,-97.0345,1020.8,1111122 
TCOON,ioos:station:TCOON:146:1,2017-02-04T20:30:00Z,28.1324,-97.0345,1019.9,1111122 
TCOON,ioos:station:TCOON:146:1,2017-02-04T22:30:00Z,28.1324,-97.0345,1018.8,1111122 
TCOON,ioos:station:TCOON:146:1,2017-02-05T03:30:00Z,28.1324,-97.0345,1019.3,1111122 
TCOON,ioos:station:TCOON:146:1,2017-02-05T04:30:00Z,28.1324,-97.0345,1019.3,1111122 
TCOON,ioos:station:TCOON:146:1,2017-02-05T06:30:00Z,28.1324,-97.0345,1018.1,1111122 
TCOON,ioos:station:TCOON:146:1,2017-02-05T07:30:00Z,28.1324,-97.0345,1017.6,1111122 
TCOON,ioos:station:TCOON:146:1,2017-02-05T10:30:00Z,28.1324,-97.0345,1017.1,1111122 
TCOON,ioos:station:TCOON:146:1,2017-02-05T11:30:00Z,28.1324,-97.0345,1016.8,1111122 
TCOON,ioos:station:TCOON:146:1,2017-02-05T12:30:00Z,28.1324,-97.0345,1017.3,1111122 
TCOON,ioos:station:TCOON:146:1,2017-02-05T13:30:00Z,28.1324,-97.0345,1017.8,1111122 
TCOON,ioos:station:TCOON:146:1,2017-02-05T16:30:00Z,28.1324,-97.0345,1019.2,1111122 
TCOON,ioos:station:TCOON:146:1,2017-02-05T17:30:00Z,28.1324,-97.0345,1018.9,1111122 
TCOON,ioos:station:TCOON:146:1,2017-02-05T19:30:00Z,28.1324,-97.0345,1017.0,1111122 
TCOON,ioos:station:TCOON:146:1,2017-02-05T20:30:00Z,28.1324,-97.0345,1016.1,1111122 
TCOON,ioos:station:TCOON:146:1,2017-02-05T21:30:00Z,28.1324,-97.0345,1015.6,1111122 
TCOON,ioos:station:TCOON:146:1,2017-02-05T22:30:00Z,28.1324,-97.0345,1015.5,1111122 
TCOON,ioos:station:TCOON:146:1,2017-02-05T23:30:00Z,28.1324,-97.0345,1015.7,1111122 
TCOON,ioos:station:TCOON:146:1,2017-02-06T10:30:00Z,28.1324,-97.0345,1014.4,1111122 
TCOON,ioos:station:TCOON:146:1,2017-02-06T11:30:00Z,28.1324,-97.0345,1014.3,1111122 
TCOON,ioos:station:TCOON:146:1,2017-02-07T21:30:00Z,28.1324,-97.0345,1007.8,1111122 
TCOON,ioos:station:TCOON:146:1,2017-02-08T01:30:00Z,28.1324,-97.0345,1007.6,1111122 
TCOON,ioos:station:TCOON:146:1,2017-02-08T08:30:00Z,28.1324,-97.0345,1007.9,1111122 
TCOON,ioos:station:TCOON:146:1,2017-02-12T22:30:00Z,28.1324,-97.0345,1017.5,1111122 
TCOON,ioos:station:TCOON:146:1,2017-02-13T07:30:00Z,28.1324,-97.0345,1018.3,1111122 
TCOON,ioos:station:TCOON:146:1,2017-02-14T13:30:00Z,28.1324,-97.0345,1007.5,1111122 
TCOON,ioos:station:TCOON:146:1,2017-02-14T17:30:00Z,28.1324,-97.0345,1012.4,1111122 
TCOON,ioos:station:TCOON:146:1,2017-02-15T15:30:00Z,28.1324,-97.0345,1021.5,1111122 
TCOON,ioos:station:TCOON:146:1,2017-02-16T08:30:00Z,28.1324,-97.0345,1020.5,1111122 
TCOON,ioos:station:TCOON:146:1,2017-02-16T13:30:00Z,28.1324,-97.0345,1021.1,1111122 
TCOON,ioos:station:TCOON:146:1,2017-02-16T18:30:00Z,28.1324,-97.0345,1019.8,1111122 
TCOON,ioos:station:TCOON:146:1,2017-02-16T19:30:00Z,28.1324,-97.0345,1018.5,1111122 
TCOON,ioos:station:TCOON:146:1,2017-02-16T20:30:00Z,28.1324,-97.0345,1017.5,1111122 
TCOON,ioos:station:TCOON:146:1,2017-02-16T21:30:00Z,28.1324,-97.0345,1016.8,1111122 
TCOON,ioos:station:TCOON:146:1,2017-02-16T22:30:00Z,28.1324,-97.0345,1016.5,1111122 
TCOON,ioos:station:TCOON:146:1,2017-02-17T01:30:00Z,28.1324,-97.0345,1016.5,1111122 
TCOON,ioos:station:TCOON:146:1,2017-02-17T02:30:00Z,28.1324,-97.0345,1017.1,1111122 
TCOON,ioos:station:TCOON:146:1,2017-02-17T03:30:00Z,28.1324,-97.0345,1016.9,1111122 
TCOON,ioos:station:TCOON:146:1,2017-02-17T04:30:00Z,28.1324,-97.0345,1016.9,1111122 
TCOON,ioos:station:TCOON:146:1,2017-02-17T05:30:00Z,28.1324,-97.0345,1016.5,1111122 
TCOON,ioos:station:TCOON:146:1,2017-02-17T06:30:00Z,28.1324,-97.0345,1015.7,1111122 
TCOON,ioos:station:TCOON:146:1,2017-02-17T07:30:00Z,28.1324,-97.0345,1014.9,1111122 
TCOON,ioos:station:TCOON:146:1,2017-02-17T08:30:00Z,28.1324,-97.0345,1014.8,1111122 
TCOON,ioos:station:TCOON:146:1,2017-02-17T09:30:00Z,28.1324,-97.0345,1014.3,1111122 
TCOON,ioos:station:TCOON:146:1,2017-02-17T10:30:00Z,28.1324,-97.0345,1014.0,1111122 
TCOON,ioos:station:TCOON:146:1,2017-02-17T11:30:00Z,28.1324,-97.0345,1013.6,1111122 
TCOON,ioos:station:TCOON:146:1,2017-02-17T12:30:00Z,28.1324,-97.0345,1013.0,1111122 
TCOON,ioos:station:TCOON:146:1,2017-02-17T13:30:00Z,28.1324,-97.0345,1012.6,1111122 
TCOON,ioos:station:TCOON:146:1,2017-02-17T14:30:00Z,28.1324,-97.0345,1013.1,1111122 
TCOON,ioos:station:TCOON:146:1,2017-02-17T17:30:00Z,28.1324,-97.0345,1012.8,1111122 
TCOON,ioos:station:TCOON:146:1,2017-02-17T18:30:00Z,28.1324,-97.0345,1011.9,1111122 
TCOON,ioos:station:TCOON:146:1,2017-02-17T19:30:00Z,28.1324,-97.0345,1010.1,1111122 
TCOON,ioos:station:TCOON:146:1,2017-02-17T20:30:00Z,28.1324,-97.0345,1008.8,1111122 
TCOON,ioos:station:TCOON:146:1,2017-02-17T21:30:00Z,28.1324,-97.0345,1008.0,1111122 
TCOON,ioos:station:TCOON:146:1,2017-02-17T22:30:00Z,28.1324,-97.0345,1007.5,1111122 
TCOON,ioos:station:TCOON:146:1,2017-02-18T02:30:00Z,28.1324,-97.0345,1008.0,1111122 
TCOON,ioos:station:TCOON:146:1,2017-02-18T03:30:00Z,28.1324,-97.0345,1008.1,1111122 
TCOON,ioos:station:TCOON:146:1,2017-02-18T04:30:00Z,28.1324,-97.0345,1008.2,1111122 
TCOON,ioos:station:TCOON:146:1,2017-02-18T05:30:00Z,28.1324,-97.0345,1008.1,1111122 
TCOON,ioos:station:TCOON:146:1,2017-02-18T06:30:00Z,28.1324,-97.0345,1008.1,1111122 
TCOON,ioos:station:TCOON:146:1,2017-02-18T07:30:00Z,28.1324,-97.0345,1008.1,1111122 
TCOON,ioos:station:TCOON:146:1,2017-02-18T08:30:00Z,28.1324,-97.0345,1007.9,1111122 
TCOON,ioos:station:TCOON:146:1,2017-02-18T09:30:00Z,28.1324,-97.0345,1007.9,1111122 
TCOON,ioos:station:TCOON:146:1,2017-02-18T10:30:00Z,28.1324,-97.0345,1008.1,1111122 
TCOON,ioos:station:TCOON:146:1,2017-02-18T11:30:00Z,28.1324,-97.0345,1008.3,1111122 
TCOON,ioos:station:TCOON:146:1,2017-02-18T12:30:00Z,28.1324,-97.0345,1008.6,1111122 
TCOON,ioos:station:TCOON:146:1,2017-02-18T13:30:00Z,28.1324,-97.0345,1008.8,1111122 
TCOON,ioos:station:TCOON:146:1,2017-02-18T14:30:00Z,28.1324,-97.0345,1009.2,1111122 
TCOON,ioos:station:TCOON:146:1,2017-02-18T15:30:00Z,28.1324,-97.0345,1009.5,1111122 
TCOON,ioos:station:TCOON:146:1,2017-02-18T16:30:00Z,28.1324,-97.0345,1009.6,1111122 
TCOON,ioos:station:TCOON:146:1,2017-02-18T17:30:00Z,28.1324,-97.0345,1009.4,1111122 
TCOON,ioos:station:TCOON:146:1,2017-02-18T18:30:00Z,28.1324,-97.0345,1008.9,1111122 
TCOON,ioos:station:TCOON:146:1,2017-02-18T19:30:00Z,28.1324,-97.0345,1007.6,1111122 
TCOON,ioos:station:TCOON:146:1,2017-02-18T20:30:00Z,28.1324,-97.0345,1007.3,1111122 
TCOON,ioos:station:TCOON:146:1,2017-02-18T21:30:00Z,28.1324,-97.0345,1007.0,1111122 
TCOON,ioos:station:TCOON:146:1,2017-02-18T22:30:00Z,28.1324,-97.0345,1006.7,1111122 
TCOON,ioos:station:TCOON:146:1,2017-02-18T23:30:00Z,28.1324,-97.0345,1006.6,1111122 
TCOON,ioos:station:TCOON:146:1,2017-02-19T00:30:00Z,28.1324,-97.0345,1007.1,1111122 
TCOON,ioos:station:TCOON:146:1,2017-02-19T01:30:00Z,28.1324,-97.0345,1007.2,1111122 
TCOON,ioos:station:TCOON:146:1,2017-02-19T02:30:00Z,28.1324,-97.0345,1007.4,1111122 
TCOON,ioos:station:TCOON:146:1,2017-02-19T03:30:00Z,28.1324,-97.0345,1008.4,1111122 
TCOON,ioos:station:TCOON:146:1,2017-02-19T04:30:00Z,28.1324,-97.0345,1009.0,1111122 
TCOON,ioos:station:TCOON:146:1,2017-02-19T05:30:00Z,28.1324,-97.0345,1009.4,1111122 
TCOON,ioos:station:TCOON:146:1,2017-02-19T06:30:00Z,28.1324,-97.0345,1008.6,1111122 
TCOON,ioos:station:TCOON:146:1,2017-02-19T07:30:00Z,28.1324,-97.0345,1007.8,1111122 
TCOON,ioos:station:TCOON:146:1,2017-02-19T08:30:00Z,28.1324,-97.0345,1007.5,1111122 
TCOON,ioos:station:TCOON:146:1,2017-02-19T09:30:00Z,28.1324,-97.0345,1006.9,1111122 
TCOON,ioos:station:TCOON:146:1,2017-02-19T10:30:00Z,28.1324,-97.0345,1007.7,1111122 
TCOON,ioos:station:TCOON:146:1,2017-02-19T11:30:00Z,28.1324,-97.0345,1008.2,1111122 
TCOON,ioos:station:TCOON:146:1,2017-02-19T12:30:00Z,28.1324,-97.0345,1009.0,1111122 
TCOON,ioos:station:TCOON:146:1,2017-02-19T13:30:00Z,28.1324,-97.0345,1009.2,1111122 
TCOON,ioos:station:TCOON:146:1,2017-02-19T14:30:00Z,28.1324,-97.0345,1009.8,1111122 
TCOON,ioos:station:TCOON:146:1,2017-02-19T15:30:00Z,28.1324,-97.0345,1010.7,1111122 
TCOON,ioos:station:TCOON:146:1,2017-02-19T16:30:00Z,28.1324,-97.0345,1010.5,1111122 
TCOON,ioos:station:TCOON:146:1,2017-02-19T17:30:00Z,28.1324,-97.0345,1010.1,1111122 
TCOON,ioos:station:TCOON:146:1,2017-02-19T18:30:00Z,28.1324,-97.0345,1010.0,1111122 
TCOON,ioos:station:TCOON:146:1,2017-02-19T19:30:00Z,28.1324,-97.0345,1009.1,1111122 
TCOON,ioos:station:TCOON:146:1,2017-02-19T20:30:00Z,28.1324,-97.0345,1008.3,1111122 
TCOON,ioos:station:TCOON:146:1,2017-02-19T21:30:00Z,28.1324,-97.0345,1007.2,1111122 
TCOON,ioos:station:TCOON:146:1,2017-02-19T22:30:00Z,28.1324,-97.0345,1007.4,1111122 
TCOON,ioos:station:TCOON:146:1,2017-02-19T23:30:00Z,28.1324,-97.0345,1007.4,1111122 
TCOON,ioos:station:TCOON:146:1,2017-02-20T00:30:00Z,28.1324,-97.0345,1008.1,1111122 
TCOON,ioos:station:TCOON:146:1,2017-02-20T01:30:00Z,28.1324,-97.0345,1008.4,1111122 
TCOON,ioos:station:TCOON:146:1,2017-02-20T02:30:00Z,28.1324,-97.0345,1008.3,1111122 
TCOON,ioos:station:TCOON:146:1,2017-02-20T03:30:00Z,28.1324,-97.0345,1007.5,1111122 
TCOON,ioos:station:TCOON:146:1,2017-02-20T04:30:00Z,28.1324,-97.0345,1008.8,1111122 
TCOON,ioos:station:TCOON:146:1,2017-02-20T05:30:00Z,28.1324,-97.0345,1010.7,1111122 
TCOON,ioos:station:TCOON:146:1,2017-02-20T06:30:00Z,28.1324,-97.0345,1010.7,1111122 
TCOON,ioos:station:TCOON:146:1,2017-02-20T07:30:00Z,28.1324,-97.0345,1010.1,1111122 
TCOON,ioos:station:TCOON:146:1,2017-02-20T08:30:00Z,28.1324,-97.0345,1009.7,1111122 
TCOON,ioos:station:TCOON:146:1,2017-02-20T09:30:00Z,28.1324,-97.0345,1009.1,1111122 
TCOON,ioos:station:TCOON:146:1,2017-02-20T10:30:00Z,28.1324,-97.0345,1009.4,1111122 
TCOON,ioos:station:TCOON:146:1,2017-02-20T11:30:00Z,28.1324,-97.0345,1010.8,1111122 
TCOON,ioos:station:TCOON:146:1,2017-02-20T12:30:00Z,28.1324,-97.0345,1012.0,1111122 
TCOON,ioos:station:TCOON:146:1,2017-02-20T13:30:00Z,28.1324,-97.0345,1012.4,1111122 
TCOON,ioos:station:TCOON:146:1,2017-02-20T14:30:00Z,28.1324,-97.0345,1013.9,1111122 
TCOON,ioos:station:TCOON:146:1,2017-02-20T15:30:00Z,28.1324,-97.0345,1014.9,1111122 
TCOON,ioos:station:TCOON:146:1,2017-02-20T16:30:00Z,28.1324,-97.0345,1015.6,1111122 
TCOON,ioos:station:TCOON:146:1,2017-02-20T17:30:00Z,28.1324,-97.0345,1014.0,1111122 
TCOON,ioos:station:TCOON:146:1,2017-02-20T18:30:00Z,28.1324,-97.0345,1015.8,1111122 
TCOON,ioos:station:TCOON:146:1,2017-02-20T19:30:00Z,28.1324,-97.0345,1014.5,1111122 
TCOON,ioos:station:TCOON:146:1,2017-02-20T20:30:00Z,28.1324,-97.0345,1013.8,1111122 
TCOON,ioos:station:TCOON:146:1,2017-02-20T21:30:00Z,28.1324,-97.0345,1014.0,1111122 
TCOON,ioos:station:TCOON:146:1,2017-02-20T22:30:00Z,28.1324,-97.0345,1013.8,1111122 
TCOON,ioos:station:TCOON:146:1,2017-02-20T23:30:00Z,28.1324,-97.0345,1013.9,1111122 
TCOON,ioos:station:TCOON:146:1,2017-02-21T00:30:00Z,28.1324,-97.0345,1014.6,1111122 
TCOON,ioos:station:TCOON:146:1,2017-02-21T01:30:00Z,28.1324,-97.0345,1014.8,1111122 
TCOON,ioos:station:TCOON:146:1,2017-02-21T02:30:00Z,28.1324,-97.0345,1015.0,1111122 
TCOON,ioos:station:TCOON:146:1,2017-02-21T03:30:00Z,28.1324,-97.0345,1015.4,1111122 
TCOON,ioos:station:TCOON:146:1,2017-02-21T04:30:00Z,28.1324,-97.0345,1015.5,1111122 
TCOON,ioos:station:TCOON:146:1,2017-02-21T05:30:00Z,28.1324,-97.0345,1015.3,1111122 
TCOON,ioos:station:TCOON:146:1,2017-02-21T06:30:00Z,28.1324,-97.0345,1014.7,1111122 
TCOON,ioos:station:TCOON:146:1,2017-02-21T07:30:00Z,28.1324,-97.0345,1015.0,1111122 
TCOON,ioos:station:TCOON:146:1,2017-02-21T08:30:00Z,28.1324,-97.0345,1014.5,1111122 
TCOON,ioos:station:TCOON:146:1,2017-02-21T09:30:00Z,28.1324,-97.0345,1014.3,1111122 
TCOON,ioos:station:TCOON:146:1,2017-02-21T10:30:00Z,28.1324,-97.0345,1014.1,1111122 
TCOON,ioos:station:TCOON:146:1,2017-02-21T11:30:00Z,28.1324,-97.0345,1014.2,1111122 
TCOON,ioos:station:TCOON:146:1,2017-02-21T12:30:00Z,28.1324,-97.0345,1014.5,1111122 
TCOON,ioos:station:TCOON:146:1,2017-02-21T13:30:00Z,28.1324,-97.0345,1014.9,1111122 
TCOON,ioos:station:TCOON:146:1,2017-02-21T14:30:00Z,28.1324,-97.0345,1015.6,1111122 
TCOON,ioos:station:TCOON:146:1,2017-02-21T15:30:00Z,28.1324,-97.0345,1016.3,1111122 
TCOON,ioos:station:TCOON:146:1,2017-02-21T16:30:00Z,28.1324,-97.0345,1016.5,1111122 
TCOON,ioos:station:TCOON:146:1,2017-02-21T17:30:00Z,28.1324,-97.0345,1016.1,1111122 
TCOON,ioos:station:TCOON:146:1,2017-02-21T18:30:00Z,28.1324,-97.0345,1015.1,1111122 
TCOON,ioos:station:TCOON:146:1,2017-02-21T19:30:00Z,28.1324,-97.0345,1014.0,1111122 
TCOON,ioos:station:TCOON:146:1,2017-02-21T20:30:00Z,28.1324,-97.0345,1013.1,1111122 
TCOON,ioos:station:TCOON:146:1,2017-02-21T21:30:00Z,28.1324,-97.0345,1012.5,1111122 
TCOON,ioos:station:TCOON:146:1,2017-02-21T22:30:00Z,28.1324,-97.0345,1012.1,1111122 
TCOON,ioos:station:TCOON:146:1,2017-02-21T23:30:00Z,28.1324,-97.0345,1012.1,1111122 
TCOON,ioos:station:TCOON:146:1,2017-02-22T00:30:00Z,28.1324,-97.0345,1012.4,1111122 
TCOON,ioos:station:TCOON:146:1,2017-02-22T01:30:00Z,28.1324,-97.0345,1012.9,1111122 
TCOON,ioos:station:TCOON:146:1,2017-02-22T02:30:00Z,28.1324,-97.0345,1013.3,1111122 
TCOON,ioos:station:TCOON:146:1,2017-02-22T03:30:00Z,28.1324,-97.0345,1013.6,1111122 
TCOON,ioos:station:TCOON:146:1,2017-02-22T04:30:00Z,28.1324,-97.0345,1013.7,1111122 
TCOON,ioos:station:TCOON:146:1,2017-02-22T05:30:00Z,28.1324,-97.0345,1013.6,1111122 
TCOON,ioos:station:TCOON:146:1,2017-02-22T06:30:00Z,28.1324,-97.0345,1013.3,1111122 
TCOON,ioos:station:TCOON:146:1,2017-02-22T07:30:00Z,28.1324,-97.0345,1013.1,1111122 
TCOON,ioos:station:TCOON:146:1,2017-02-22T08:30:00Z,28.1324,-97.0345,1013.0,1111122 
TCOON,ioos:station:TCOON:146:1,2017-02-22T09:30:00Z,28.1324,-97.0345,1012.9,1111122 
TCOON,ioos:station:TCOON:146:1,2017-02-22T10:30:00Z,28.1324,-97.0345,1012.8,1111122 
TCOON,ioos:station:TCOON:146:1,2017-02-22T11:30:00Z,28.1324,-97.0345,1012.7,1111122 
TCOON,ioos:station:TCOON:146:1,2017-02-22T12:30:00Z,28.1324,-97.0345,1012.9,1111122 
TCOON,ioos:station:TCOON:146:1,2017-02-22T13:30:00Z,28.1324,-97.0345,1013.0,1111122 
TCOON,ioos:station:TCOON:146:1,2017-02-22T14:30:00Z,28.1324,-97.0345,1013.4,1111122 
TCOON,ioos:station:TCOON:146:1,2017-02-22T16:30:00Z,28.1324,-97.0345,1013.6,1111122 
TCOON,ioos:station:TCOON:146:1,2017-02-22T17:30:00Z,28.1324,-97.0345,1013.1,1111122 
TCOON,ioos:station:TCOON:146:1,2017-02-22T18:30:00Z,28.1324,-97.0345,1012.3,1111122 
TCOON,ioos:station:TCOON:146:1,2017-02-22T19:30:00Z,28.1324,-97.0345,1011.2,1111122 
TCOON,ioos:station:TCOON:146:1,2017-02-22T20:30:00Z,28.1324,-97.0345,1010.3,1111122 
TCOON,ioos:station:TCOON:146:1,2017-02-22T21:30:00Z,28.1324,-97.0345,1009.5,1111122 
TCOON,ioos:station:TCOON:146:1,2017-02-22T22:30:00Z,28.1324,-97.0345,1008.9,1111122 
TCOON,ioos:station:TCOON:146:1,2017-02-22T23:30:00Z,28.1324,-97.0345,1008.5,1111122 
TCOON,ioos:station:TCOON:146:1,2017-02-23T00:30:00Z,28.1324,-97.0345,1008.2,1111122 
TCOON,ioos:station:TCOON:146:1,2017-02-23T01:30:00Z,28.1324,-97.0345,1008.2,1111122 
TCOON,ioos:station:TCOON:146:1,2017-02-23T02:30:00Z,28.1324,-97.0345,1008.4,1111122 
TCOON,ioos:station:TCOON:146:1,2017-02-23T03:30:00Z,28.1324,-97.0345,1008.2,1111122 
TCOON,ioos:station:TCOON:146:1,2017-02-23T04:30:00Z,28.1324,-97.0345,1008.0,1111122 
TCOON,ioos:station:TCOON:146:1,2017-02-23T05:30:00Z,28.1324,-97.0345,1007.7,1111122 
TCOON,ioos:station:TCOON:146:1,2017-02-23T06:30:00Z,28.1324,-97.0345,1007.5,1111122 
TCOON,ioos:station:TCOON:146:1,2017-02-23T07:30:00Z,28.1324,-97.0345,1007.2,1111122 
TCOON,ioos:station:TCOON:146:1,2017-02-23T08:30:00Z,28.1324,-97.0345,1006.7,1111122 
TCOON,ioos:station:TCOON:146:1,2017-02-23T09:30:00Z,28.1324,-97.0345,1006.4,1111122 
TCOON,ioos:station:TCOON:146:1,2017-02-23T10:30:00Z,28.1324,-97.0345,1006.2,1111122 
TCOON,ioos:station:TCOON:146:1,2017-02-23T11:30:00Z,28.1324,-97.0345,1006.1,1111122 
TCOON,ioos:station:TCOON:146:1,2017-02-23T12:30:00Z,28.1324,-97.0345,1006.2,1111122 
TCOON,ioos:station:TCOON:146:1,2017-02-23T13:30:00Z,28.1324,-97.0345,1006.3,1111122 
TCOON,ioos:station:TCOON:146:1,2017-02-23T14:30:00Z,28.1324,-97.0345,1006.4,1111122 
TCOON,ioos:station:TCOON:146:1,2017-02-23T15:30:00Z,28.1324,-97.0345,1006.6,1111122 
TCOON,ioos:station:TCOON:146:1,2017-02-23T16:30:00Z,28.1324,-97.0345,1006.5,1111122 
TCOON,ioos:station:TCOON:146:1,2017-02-23T17:30:00Z,28.1324,-97.0345,1006.2,1111122 
TCOON,ioos:station:TCOON:146:1,2017-02-23T18:30:00Z,28.1324,-97.0345,1005.1,1111122 
TCOON,ioos:station:TCOON:146:1,2017-02-23T19:30:00Z,28.1324,-97.0345,1004.0,1111122 
TCOON,ioos:station:TCOON:146:1,2017-02-23T20:30:00Z,28.1324,-97.0345,1003.4,1111122 
TCOON,ioos:station:TCOON:146:1,2017-02-23T21:30:00Z,28.1324,-97.0345,1002.5,1111122 
TCOON,ioos:station:TCOON:146:1,2017-02-23T22:30:00Z,28.1324,-97.0345,1002.2,1111122 
TCOON,ioos:station:TCOON:146:1,2017-02-23T23:30:00Z,28.1324,-97.0345,1001.7,1111122 
TCOON,ioos:station:TCOON:146:1,2017-02-24T00:30:00Z,28.1324,-97.0345,1001.8,1111122 
TCOON,ioos:station:TCOON:146:1,2017-02-24T01:30:00Z,28.1324,-97.0345,1002.0,1111122 
TCOON,ioos:station:TCOON:146:1,2017-02-24T02:30:00Z,28.1324,-97.0345,1002.7,1111122 
TCOON,ioos:station:TCOON:146:1,2017-02-24T03:30:00Z,28.1324,-97.0345,1003.4,1111122 
TCOON,ioos:station:TCOON:146:1,2017-02-24T04:30:00Z,28.1324,-97.0345,1003.8,1111122 
TCOON,ioos:station:TCOON:146:1,2017-02-24T05:30:00Z,28.1324,-97.0345,1003.6,1111122 
TCOON,ioos:station:TCOON:146:1,2017-02-24T06:30:00Z,28.1324,-97.0345,1003.7,1111122 
TCOON,ioos:station:TCOON:146:1,2017-02-24T07:30:00Z,28.1324,-97.0345,1003.2,1111122 
TCOON,ioos:station:TCOON:146:1,2017-02-24T08:30:00Z,28.1324,-97.0345,1003.3,1111122 
TCOON,ioos:station:TCOON:146:1,2017-02-24T09:30:00Z,28.1324,-97.0345,1002.8,1111122 
TCOON,ioos:station:TCOON:146:1,2017-02-24T10:30:00Z,28.1324,-97.0345,1002.4,1111122 
TCOON,ioos:station:TCOON:146:1,2017-02-24T11:30:00Z,28.1324,-97.0345,1002.3,1111122 
TCOON,ioos:station:TCOON:146:1,2017-02-24T12:30:00Z,28.1324,-97.0345,1003.1,1111122 
TCOON,ioos:station:TCOON:146:1,2017-02-24T13:30:00Z,28.1324,-97.0345,1005.2,1111122 
TCOON,ioos:station:TCOON:146:1,2017-02-24T14:30:00Z,28.1324,-97.0345,1006.3,1111122 
TCOON,ioos:station:TCOON:146:1,2017-02-24T15:30:00Z,28.1324,-97.0345,1007.1,1111122 
TCOON,ioos:station:TCOON:146:1,2017-02-24T16:30:00Z,28.1324,-97.0345,1007.2,1111122 
TCOON,ioos:station:TCOON:146:1,2017-02-24T17:30:00Z,28.1324,-97.0345,1007.7,1111122 
TCOON,ioos:station:TCOON:146:1,2017-02-24T18:30:00Z,28.1324,-97.0345,1007.4,1111122 
TCOON,ioos:station:TCOON:146:1,2017-02-24T19:30:00Z,28.1324,-97.0345,1006.9,1111122 
TCOON,ioos:station:TCOON:146:1,2017-02-24T20:30:00Z,28.1324,-97.0345,1006.2,1111122 
TCOON,ioos:station:TCOON:146:1,2017-02-24T21:30:00Z,28.1324,-97.0345,1006.2,1111122 
TCOON,ioos:station:TCOON:146:1,2017-02-24T22:30:00Z,28.1324,-97.0345,1006.3,1111122 
TCOON,ioos:station:TCOON:146:1,2017-02-24T23:30:00Z,28.1324,-97.0345,1007.1,1111122 